Location: Bergnerzell
(49.1816°N, 10.2565°E)
Time: 23:10:46
(UTC+00:00)

AQUA - Pass Details

Date: 23 May 2024
Orbit: 693 x 697 km, 98.3° (Epoch: 14 June)

Event Time Altitude Azimuth Distance (km) Brightness Sun altitude
Rises 01:57:24 0° 14° (NNE) 3,086 8.5 -11.5°
Reaches altitude 10° 01:59:40 10° 15° (NNE) 2,164 7.5 -11.2°
Maximum altitude 02:04:25 87° 107° (ESE) 703 3.8 -10.7°
Enters shadow 02:09:02 11° 195° (SSW) 2,110 5.7 -10.3°
